Weather in Barkhatovo

Russia / Tyumen Oblast     56°28′25″N   65°13′40″E
temp.,
°C
wind,
m/s
gust,
m/s
humid.,
%
clouds,
%
prec.,
mm/h
press.,
hPa
HPBL,
m
13 april, tue
tue1323:00+5nw38884 0.0 1038137
02:00+3nnw23870 0.0 103941
05:00+2nnw22880 0.0 104018
08:00+5nw23770 0.0 1041129
11:00+9w33572 0.0 1041678
14:00+12w44484 0.0 1040986
17:00+12wsw46524 0.0 1038859
20:00+7sw36785 0.0 1037105
14 april, wed
wed1423:00+6sw3108923 0.0 1036191
02:00+6sw5138973 0.0 1034284
05:00+6sw51484100 0.0 1033328
08:00+8wsw5128243 0.0 1032319
11:00+14wsw68707 0.0 1030596
14:00+17w676011 0.0 1029961
17:00+18w57605 0.0 10281065
20:00+13wsw378310 0.0 102798
15 april, thu
thu1523:00+11wsw38906 0.0 1027127
02:00+10wsw359151 0.0 102689
05:00+9wsw33905 0.0 102643
08:00+11wsw36795 0.0 1025184
11:00+17wsw46605 0.0 1024705
14:00+19wsw57535 0.0 10221235
17:00+19wsw67525 0.0 10201232
20:00+14sw38685 0.0 1018137
16 april, fri
fri1623:00+11sw410695 0.0 1017158
02:00+9wsw368076 0.0 101699
05:00+8w3474100 0.0 101546
08:00+10nw2566100 0.0 1015178
11:00+12nne557292 0.0 1015831
14:00+6nne6983100 0.0 1017600
17:00+4nne6995100 0.3 1017727
20:00+2ne51297100 1.1 1017561
17 april, sat
sat1723:00+2ne61296100 3.7 1018530
02:00+1ne5109697 0.8 1017538
05:00−1ne4880100 0.9 1017454
08:00−1ne567271 0.0 1017546
11:00+2ne456098 0.0 10161125
14:00+3ne4450100 0.0 10151538
17:00+3ne4547100 0.1 10151581
20:00+1nne4958100 0.0 1016353